Location: Borojevi?i
(45.0486°N, 16.2297°E)
Time: 17:50:01
(UTC+00:00)

SPOT 1/Viking Rocket - Pass Details

Date: 08 August 2020
Orbit: 776 x 795 km, 98.5° (Epoch: 25 September)

Event Time Altitude Azimuth Distance (km) Brightness Sun altitude
Exits shadow 20:39:53 27° 198° (SSW) 1,469 4.6 -21.3°
Maximum altitude 20:42:26 51° 260° (W) 995 4.2 -21.5°
Drops below altitude 10° 20:47:32 10° 336° (NNW) 2,374 7.1 -22.1°
Sets 20:49:57 0° 342° (NNW) 3,308 8.1 -22.3°
